sat.trackr.live / text

‹ back to catalog

GEN1A-2

NORAD 69005 · 2026-100AB

PAYLOAD ACTIVE UNKNOWN

§ Identity

Operator
Country
US
Launch date
2026-05-03
Launch site
AFWTR
Launch vehicle
Mass (kg)
RCS (m²)

External: N2YO · Heavens-Above · Gunter

§ Orbital elements

Epoch: 2026-05-25T04:30:39.539232Z

Period
94.73 min
Inclination
97.4060°
Eccentricity
0.0007055
Mean motion
15.20141276 rev/d
Perigee alt
500.6 km
Apogee alt
510.3 km
Semi-major
6,883.6 km
B*
1.3385e-4
RAAN
43.4156°
Arg perigee
96.7759°
Mean anomaly
263.4279°
Rev number
332

§ Raw data

GEN1A-21 69005U 26100AB  26145.18795763  .00002828  00000+0  13385-3 0  99952 69005  97.4060  43.4156 0007055  96.7759 263.4279 15.20141276  3321

JSON: /api/v1/satellites/69005 · /tle

For live sub-satellite position, see the globe view (requires WebGL).

§ Visibility from observer

Set your observer location to see the next 7 days of passes ≥ 10°. The values pass through the URL so the page stays shareable.

No JS? Fill the form by hand. The geolocation button needs JavaScript.